Weather in Sterlitamak

Russia / Republic of Bashkortostan     53˚37′49″N   55˚55′50″E
temp.,
°C
wind,
m/s
gust,
m/s
humid.,
%
clouds,
%
prec.,
mm/h
press.,
hPa
HPBL,
m
28 november, sat
sat2823:00−9˚ssw11920 0.0 103021
02:00−10˚ssw11942 0.0 103121
05:00−10˚ssw12941 0.0 103321
08:00−10˚s229666 0.0 103521
11:00−9˚s239463 0.0 1037124
14:00−7˚s258921 0.0 1038267
17:00−8˚s229226 0.0 104023
20:00−9˚s229273 0.0 104124
29 november, sun
sun2923:00−8˚s229185 0.0 104330
02:00−7˚s2396100 0.1 104487
05:00−7˚sse2297100 0.4 104669
08:00−6˚sse2497100 0.6 1046135
11:00−5˚sse2596100 1.3 1048251
14:00−4˚s3594100 0.3 1047345
17:00−4˚s2397100 0.7 1049115
20:00−4˚s2297100 0.8 104974
30 november, mon
mon3023:00−5˚ssw1297100 1.1 105021
02:00−7˚sse119858 0.0 105021
05:00−8˚ene019846 0.1 105121
08:00−8˚e019720 0.0 105121
11:00−7˚ene009511 0.0 105221
14:00−5˚ne00920 0.0 105168
17:00−8˚n11910 0.0 105121
20:00−9˚nne11910 0.0 105121
1 december, tue
tue123:00−10˚nne11920 0.0 105121
02:00−10˚e00930 0.0 105121
05:00−11˚sse00930 0.0 105021
08:00−11˚ne00900 0.0 105021
11:00−10˚ne01880 0.0 105021
14:00−7˚n11870 0.0 104958
17:00−10˚nne11860 0.0 104921
20:00−11˚nne11840 0.0 104821
2 december, wed
wed223:00−12˚ene11850 0.0 104821
02:00−12˚sse01840 0.0 104821
05:00−13˚ssw01810 0.0 104821
08:00−13˚ne11810 0.0 104821
11:00−11˚ne11840 0.0 104721
14:00−9˚n12830 0.0 104664
17:00−11˚n22840 0.0 104521
20:00−12˚n22860 0.0 104521